Orbital Elements at Epoch 2459200.5 (2020-Dec-17.0) TDB
Reference: JPL 25 (heliocentric ecliptic J2000)
Element | Value | Uncertainty (1-sigma) | Units |
e | .09490131094220249 | 3.6009e-08 | |
a | 2.28645246749453 | 1.0881e-08 | au |
q | 2.069465130922266 | 8.2889e-08 | au |
i | 6.284556598976091 | 5.0071e-06 | deg |
node | 23.12825809078823 | 3.6379e-05 | deg |
peri | 236.442274393908 | 4.7314e-05 | deg |
M | 261.1371518103685 | 3.3128e-05 | deg |
tp | 2459547.294587133782 (2021-Nov-28.79458713) | 0.00011745 | TDB |
period | 1262.820702157913 3.46 | 9.0143e-06 2.468e-08 | d yr |
n | .285076099389906 | 2.0349e-09 | deg/d |
Q | 2.503439804066795 | 1.1913e-08 | au |
|
| | Orbit Determination Parameters
Additional Information
|